RH
61 45 52 70 87 86 82 81 79 82 76 63 48 46 69 75 86 87 88 90 88 76 88 92 89 87 91 90 88 83 80 82 83 80 61 49 45 56 36 40 48 55 63
54 32 38 66 84 80 81 82 79 83 72 63 43 82 95 96 93 95 92 89 84 65 47 90 90 86 85 82 85 85 85 83 69 62 36 39 44 44 59 69 64 53 77
33 26 37 64 86 82 81 82 82 80 58 49 44 70 91 89 88 84 91 94 60 44 35 36 66 64 78 77 76 75 78 70 66 50 34 45 53 62 66 73 69 51 54
29 26 38 61 73 74 77 82 81 52 46 47 79 88 90 83 90 92 93 78 65 42 34 29 30 34 33 44 51 60 58 80 64 46 49 38 48 59 69 89 90 66 42
36 29 34 56 77 74 66 69 63 49 45 44 50 87 89 86 85 86 89 75 76 53 32 28 30 33 30 29 32 40 38 50 37 31 40 52 48 58 84 86 95 86 54
41 39 43 52 63 73 74 72 65 46 42 33 43 82 85 83 84 81 79 72 80 63 32 32 29 28 35 43 45 46 50 43 40 32 28 29 54 56 70 94 94 87 44
42 45 41 51 54 57 65 66 62 51 46 32 43 66 72 81 82 85 78 80 79 37 36 38 39 39 38 38 41 46 47 45 45 44 43 36 35 53 60 94 97 95 96
47 52 56 41 47 51 63 68 57 56 59 38 39 56 60 74 80 80 89 85 54 36 38 40 42 44 44 45 46 47 48 52 57 61 60 51 47 40 48 84 96 95 92
54 54 53 36 40 47 57 59 55 62 65 49 43 35 38 55 73 79 76 44 40 41 42 45 48 53 57 64 65 65 63 68 69 70 68 66 66 66 64 64 94 96 95
56 57 51 37 37 36 39 46 54 62 59 45 37 27 26 45 58 44 38 44 47 51 57 67 68 75 77 80 85 88 90 89 89 86 84 85 87 88 86 81 81 92 93
58 55 50 47 43 42 48 57 66 61 46 41 33 29 28 38 48 43 50 56 64 71 71 74 76 78 85 90 93 90 89 90 91 90 89 89 89 92 91 89 92 90 88
42 43 48 48 52 53 59 66 71 61 60 47 40 50 54 54 59 62 68 79 83 81 81 85 87 90 88 88 90 85 85 84 84 84 83 82 87 89 86 90 88 89 91
26 41 47 47 58 59 61 69 70 65 65 70 71 67 70 70 72 79 86 95 98 88 87 90 84 86 84 84 82 79 77 76 82 80 78 79 79 80 84 86 87 85 82
28 34 44 52 56 66 73 75 78 80 76 71 76 77 78 83 90 95 96 97 93 88 86 84 83 81 81 83 82 76 71 63 71 73 76 77 75 79 80 82 76 78 80
24 28 42 53 60 66 77 81 80 84 84 84 87 88 90 90 92 95 98 96 88 85 78 82 86 86 74 52 43 39 40 44 54 61 62 59 45 56 56 64 70 72 77
22 28 43 56 67 78 87 91 89 88 86 87 86 89 94 97 96 98 95 90 86 82 84 86 72 45 35 36 36 35 34 37 46 49 47 43 48 52 60 60 54 59 67
24 26 46 60 68 79 88 95 92 88 86 85 85 90 92 95 96 94 92 89 86 85 69 48 37 37 35 30 26 22 21 22 24 28 36 53 57 55 50 48 46 46 50
33 32 52 63 65 78 89 92 87 89 85 85 87 90 92 96 97 94 91 89 53 34 36 35 31 27 24 23 21 21 21 21 27 42 35 36 38 40 38 35 34 35 40
42 46 55 58 62 75 88 93 89 84 84 86 90 90 94 95 98 95 54 34 35 32 29 26 26 25 24 23 22 22 21 22 31 20 26 12 14 10 22 29 31 31 30
40 49 55 58 68 77 86 91 89 88 88 89 91 90 93 78 41 35 35 31 29 28 26 25 25 24 22 22 22 19 16 25 12 25 5 6 3 10 11 6 4 4 6
44 43 42 45 63 74 90 89 85 86 87 91 92 79 36 35 36 34 33 36 38 37 33 28 26 24 22 20 19 18 11 8 11 19 6 6 6 6 4 5 4 4 4
49 55 52 49 69 83 88 89 87 87 90 90 60 34 37 37 35 38 42 46 45 41 33 28 25 21 18 16 16 16 14 11 17 8 13 6 12 6 5 4 5 5 7
63 69 63 68 77 88 94 88 89 91 86 49 34 37 38 37 41 44 48 49 46 38 32 26 21 18 16 14 13 16 24 32 23 20 10 13 12 10 8 7 8 10 15
72 82 82 86 92 95 95 92 91 80 51 34 37 38 36 41 46 49 50 48 43 35 27 21 16 14 14 13 11 16 20 27 33 33 19 10 16 13 11 12 13 19 21
78 85 87 87 87 88 86 72 65 42 32 37 38 37 40 46 49 50 50 47 40 31 24 17 15 14 12 11 14 17 18 20 23 38 44 38 20 13 12 16 19 22 24
85 87 91 92 91 78 64 47 34 32 35 36 38 42 46 49 50 50 49 45 36 27 22 17 14 11 11 14 18 21 22 24 26 32 40 42 42 38 41 32 26 27 45
Wind_Speed
6 7 10 13 13 11 8 6 4 3 3 3 0 6 6 6 5 2 3 3 8 10 7 4 2 3 7 5 4 6 8 11 14 14 13 8 8 8 8 6 8 9 5
4 9 9 15 15 13 11 8 6 4 5 3 1 13 9 7 4 2 2 4 5 5 1 6 6 6 7 7 7 6 9 13 10 7 5 4 5 5 5 4 4 8 6
7 10 10 15 15 14 12 10 8 6 4 2 5 14 11 6 3 2 3 2 4 5 5 1 6 1 5 6 7 9 11 12 11 6 3 4 4 6 8 8 6 7 12
7 9 10 13 15 13 11 9 6 4 3 1 7 7 7 6 4 2 3 7 7 8 8 6 2 3 5 8 10 11 11 13 13 10 5 7 7 8 8 8 9 7 9
7 10 9 13 13 11 9 8 4 1 0 2 6 10 9 7 4 1 1 4 11 12 8 7 4 3 2 2 3 6 8 9 12 9 6 7 9 8 7 11 12 11 10
8 9 8 10 11 11 9 6 4 1 1 3 8 11 9 7 4 3 5 5 11 10 6 7 7 6 5 5 5 5 6 7 9 9 8 8 11 8 8 12 15 15 11
8 8 7 9 9 9 8 5 4 2 3 3 7 8 7 7 6 5 4 5 7 6 7 8 8 8 8 8 8 8 9 9 9 10 11 10 9 11 10 10 13 14 14
5 7 7 9 10 8 8 7 5 4 3 4 4 6 4 5 4 3 5 4 4 5 6 7 8 8 9 9 10 10 11 11 11 12 12 11 10 9 11 10 13 15 15
8 7 7 10 10 10 9 8 6 5 4 3 3 2 4 4 4 2 1 1 3 5 7 8 8 9 9 10 11 12 12 13 14 14 13 11 11 12 13 13 12 15 16
12 10 10 10 11 10 8 7 5 4 2 1 1 2 4 5 4 3 1 2 5 6 6 7 7 8 9 10 11 11 12 14 15 16 16 15 15 15 16 14 14 16 18
17 15 14 11 11 10 9 7 5 3 2 2 3 4 6 7 5 4 1 2 4 5 5 7 7 7 8 10 11 12 14 15 16 17 17 17 18 18 19 17 18 18 18
17 17 17 14 13 12 10 8 5 4 3 5 7 6 5 4 2 0 2 3 5 4 6 8 10 10 12 12 12 12 13 14 14 14 14 16 17 18 18 20 22 22 23
11 16 16 16 15 13 12 9 6 6 6 7 6 4 4 2 1 1 2 4 4 7 8 8 10 11 13 12 12 12 12 14 14 16 15 14 14 15 16 19 21 22 23
19 17 16 17 17 15 11 10 7 7 6 7 5 5 3 2 2 1 2 4 4 6 8 11 12 13 13 14 15 15 15 15 14 14 14 17 18 19 19 22 22 21 20
20 21 20 18 20 18 14 11 11 10 5 5 6 4 4 5 3 5 5 6 7 9 11 12 15 14 15 13 13 15 15 16 16 17 16 18 19 18 18 15 16 17 18
20 20 21 20 19 19 17 15 13 10 8 7 7 8 7 7 10 8 8 9 9 10 13 15 14 12 14 16 17 18 19 18 18 19 20 19 17 14 11 11 11 10 10
26 20 22 22 20 22 21 16 14 14 14 14 14 12 10 8 9 10 9 9 10 13 11 11 13 16 18 19 19 19 17 16 15 15 13 9 10 11 12 13 13 13 12
21 22 23 23 22 22 22 19 17 18 17 16 14 11 9 8 8 6 8 10 8 8 11 14 16 18 18 18 17 14 12 11 9 8 9 12 14 16 16 16 17 17 18
20 23 26 25 23 23 23 23 21 20 19 15 13 10 9 9 8 8 7 5 8 11 13 15 16 16 16 15 14 13 10 8 7 11 8 13 12 13 13 14 16 18 21
22 22 23 24 27 28 27 25 23 20 18 13 12 11 9 6 5 3 4 7 10 13 14 14 13 13 15 17 17 16 9 4 14 4 21 9 15 9 14 18 21 22 24
20 21 24 28 31 31 31 28 24 21 18 16 13 10 9 7 3 2 6 9 12 15 16 16 15 14 16 20 22 22 14 12 7 7 17 19 14 16 25 20 24 24 25
17 18 22 29 33 32 27 29 26 21 18 15 14 14 9 5 1 4 8 11 14 16 16 15 16 16 16 20 23 19 13 16 4 31 12 28 13 33 20 27 27 28 27
19 21 24 28 29 28 27 27 24 21 18 19 17 12 8 3 2 5 9 13 16 16 15 15 15 17 18 18 19 15 9 8 36 15 35 19 33 28 34 33 31 30 30
22 24 26 27 27 26 24 24 23 22 23 19 14 10 6 2 2 7 11 14 17 17 15 14 15 16 18 20 20 18 16 18 15 22 27 42 32 41 38 37 34 34 35
26 27 27 26 24 22 19 19 20 22 20 17 13 9 6 2 4 8 12 15 17 16 15 14 15 16 18 19 21 24 24 24 24 24 32 31 43 43 42 37 38 37 36
28 27 28 28 26 22 21 23 22 21 19 15 12 9 5 3 6 10 13 16 16 15 14 15 16 17 19 20 22 23 24 25 29 29 34 37 36 37 30 40 37 37 32
Wind_Direction
185 182 167 162 155 177 191 180 231 279 309 323 303 150 165 178 196 204 258 277 303 332 124 115 113 151 147 165 184 227 258 259 267 284 297 268 255 237 252 266 288 226 242
196 172 171 169 170 186 182 192 227 265 300 311 179 150 153 140 132 210 201 273 295 321 121 171 185 199 197 209 230 250 274 280 291 302 307 259 220 220 242 237 274 231 198
174 167 166 173 171 184 189 200 226 270 285 293 145 170 160 172 193 109 131 230 348 24 33 229 239 239 213 238 254 268 271 290 319 324 299 222 237 247 255 250 251 244 242
153 157 155 168 174 187 196 214 232 262 259 205 146 146 159 164 147 129 132 48 25 21 22 26 14 303 276 262 270 265 275 284 302 327 301 252 257 267 268 257 267 262 246
150 154 158 162 173 184 186 187 213 250 182 177 165 149 151 159 159 145 173 340 26 14 24 33 44 28 15 299 292 277 285 283 303 319 310 276 273 274 280 269 267 276 264
157 157 160 169 176 190 194 199 204 147 71 150 171 167 168 154 176 217 255 355 8 2 32 37 38 33 11 0 357 352 344 344 336 342 330 299 276 270 257 266 288 290 279
170 167 171 183 189 187 194 204 214 167 101 117 172 174 161 169 157 201 238 303 339 5 23 21 18 13 9 7 4 356 351 351 347 344 340 332 306 279 272 278 271 275 282
200 184 197 204 201 202 207 212 221 177 140 118 156 182 171 178 175 196 209 274 334 4 15 11 5 1 1 356 351 347 343 340 345 345 339 335 330 305 292 283 275 290 289
213 215 222 214 205 208 211 215 207 191 180 129 108 134 187 168 179 198 220 302 348 357 360 360 357 359 0 359 358 357 348 343 339 340 342 343 336 326 317 311 283 280 285
221 227 230 212 208 206 203 209 208 212 197 117 107 124 135 150 153 177 154 36 8 360 4 5 12 9 12 11 7 2 354 352 345 344 341 341 338 335 327 317 313 305 294
222 228 220 209 202 199 199 197 199 218 217 185 168 136 138 148 146 133 97 37 36 19 15 12 2 359 356 354 349 343 340 333 327 329 333 331 330 327 327 329 311 305 305
229 228 225 210 202 198 200 198 200 224 211 173 163 144 150 142 153 96 36 15 12 10 358 357 353 349 341 338 333 326 321 319 317 314 320 319 319 317 315 308 300 297 297
252 234 230 219 208 209 206 201 199 191 191 182 168 174 158 137 110 24 14 350 342 346 345 333 332 319 314 305 298 296 295 295 301 309 301 302 311 307 300 293 297 299 296
237 241 236 226 218 214 212 215 215 195 187 190 190 201 197 194 177 314 269 291 307 296 296 302 299 296 296 296 296 295 290 290 290 293 295 291 288 283 284 287 291 290 297
234 227 229 225 220 217 216 219 218 200 197 191 205 206 237 231 213 227 243 253 273 286 295 291 290 293 292 293 294 296 295 292 289 289 289 292 296 290 294 291 293 298 297
234 228 218 216 220 219 215 214 211 189 192 200 189 200 205 220 227 234 232 254 270 282 283 287 293 298 298 299 298 296 296 294 291 289 292 295 295 296 294 294 306 310 308
239 231 214 209 212 214 214 206 198 185 190 196 202 210 221 223 219 234 247 265 271 278 287 289 292 295 297 298 302 304 302 296 291 292 294 294 296 297 305 305 305 308 305
220 222 204 203 210 210 211 204 194 193 194 203 214 219 218 219 228 219 248 269 277 287 293 299 301 303 308 313 316 319 321 308 295 294 301 302 299 297 298 302 302 300 297
211 207 202 205 208 201 201 200 195 197 203 209 209 207 213 248 214 240 256 284 301 307 310 313 317 320 322 326 328 331 325 297 288 300 306 313 312 309 308 311 308 308 307
217 207 205 209 200 196 197 193 194 195 201 203 199 206 235 205 191 221 301 326 331 331 330 330 333 335 333 334 333 336 336 279 301 250 339 324 325 317 314 316 311 304 299
217 216 216 209 199 198 193 186 187 191 196 201 198 198 170 170 175 338 349 353 349 346 343 339 337 339 339 339 341 344 344 336 300 275 323 327 321 325 315 316 317 315 312
206 195 196 192 190 193 195 191 188 184 192 194 178 166 164 162 103 360 359 355 353 347 339 336 338 342 348 350 351 351 337 338 258 324 321 323 300 321 315 317 318 317 316
190 185 184 184 188 191 192 194 192 188 185 173 168 168 165 158 360 354 354 350 346 342 337 337 338 341 344 349 353 1 344 315 324 319 318 319 313 316 319 318 319 318 316
181 180 182 182 183 187 194 199 202 190 173 170 169 171 172 179 337 346 345 345 342 340 338 338 341 340 338 340 342 337 331 318 321 316 309 314 316 316 319 319 317 317 314
181 180 185 184 186 186 189 190 178 171 170 169 173 177 184 229 325 337 338 341 341 338 336 336 335 335 334 333 333 329 325 320 318 309 307 310 313 315 315 314 313 313 316
180 180 183 182 180 180 173 169 172 175 174 177 182 188 202 269 318 331 335 338 337 335 331 330 330 329 328 327 324 324 322 320 315 314 308 308 305 307 307 306 310 312 311